Siemreap, Cambodia

7:51 PM +07 on April 22, 2018 (GMT +0700)
Siem Reap

Weather History for VDSR - May, 2013

Change the Weather History Date:

Friday, May 10, 2013

  Actual Average Record
Temperature  
Mean Temperature 89 °F -  
Max Temperature 98 °F - - ()
Min Temperature 80 °F - - ()
Cooling Degree Days 24    
Growing Degree Days 39 (Base 50)    
Moisture  
Dew Point 72 °F    
Average Humidity 58    
Maximum Humidity 84    
Minimum Humidity 34    
Precipitation  
Precipitation 0.00 in - - ()
Sea Level Pressure  
Sea Level Pressure 29.71 in    
Wind  
Wind Speed 5 mph ()    
Max Wind Speed 9 mph    
Max Gust Speed -    
Visibility 6.0 miles    
Events      
T = Trace of Precipitation, MM = Missing Value Source: Averaged Metar Reports

Daily Weather History Graph

Daily Weather History Graph

Search for Another Location

Airport or City:

Astronomy

May. 10, 2013 Rise Set
Actual Time 5:40 AM +07 6:22 PM +07
Civil Twilight 5:17 AM +07 6:44 PM +07
Nautical Twilight 4:51 AM +07 7:10 PM +07
Astronomical Twilight 4:24 AM +07 7:37 PM +07
Moon 5:41 AM +07 (5/10) 6:40 PM +07 (5/10)
Length of Visible Light 13h 26m
Length of Day
12h 41m
New Moon, 0% of the Moon is Illuminated
May 10
New Moon
May 18
First Quarter
May 25
Full
Jun 1
Last Quarter
Jun 8
New

Hourly Weather History & Observations

Time (+07) Temp. Heat Index Dew Point Humidity Pressure Visibility Wind Dir Wind Speed Gust Speed Precip Events Conditions
12:00 AM 80.6 °F 85.4 °F 73.4 °F 79% 29.77 in 6.2 mi ESE 4.6 mph - N/A   Scattered Clouds
12:30 AM 80.6 °F 85.4 °F 73.4 °F 79% 29.77 in 6.2 mi East 5.8 mph - N/A   Scattered Clouds
1:00 AM 80.6 °F 85.4 °F 73.4 °F 79% 29.74 in 6.2 mi ESE 4.6 mph - N/A   Scattered Clouds
7:00 AM 80.6 °F 86.2 °F 75.2 °F 84% 29.77 in 6.2 mi South 3.5 mph - N/A   Scattered Clouds
7:30 AM 82.4 °F 89.5 °F 75.2 °F 79% 29.77 in 6.2 mi SSE 5.8 mph - N/A   Scattered Clouds
8:00 AM 84.2 °F 92.3 °F 75.2 °F 74% 29.77 in 6.2 mi ESE 5.8 mph - N/A   Scattered Clouds
8:30 AM 84.2 °F 92.3 °F 75.2 °F 74% 29.80 in 6.2 mi SSE 5.8 mph - N/A   Scattered Clouds
9:00 AM 86.0 °F 95.1 °F 75.2 °F 70% 29.80 in 6.2 mi ESE 6.9 mph - N/A   Scattered Clouds
9:30 AM 89.6 °F 99.8 °F 75.2 °F 62% 29.80 in 6.2 mi SSE 5.8 mph - N/A   Scattered Clouds
10:00 AM 89.6 °F 99.8 °F 75.2 °F 62% 29.80 in 6.2 mi SSE 5.8 mph - N/A   Scattered Clouds
10:30 AM 91.4 °F 102.5 °F 75.2 °F 59% 29.77 in 6.2 mi South 8.1 mph - N/A   Scattered Clouds
11:00 AM 91.4 °F 102.5 °F 75.2 °F 59% 29.77 in 6.2 mi South 8.1 mph - N/A   Scattered Clouds
11:30 AM 93.2 °F 102.4 °F 73.4 °F 52% 29.77 in 6.2 mi South 8.1 mph - N/A   Scattered Clouds
12:30 PM 95.0 °F 103.2 °F 71.6 °F 47% 29.74 in 6.2 mi South 9.2 mph - N/A   Scattered Clouds
1:00 PM 95.0 °F 101.3 °F 69.8 °F 44% 29.71 in 6.2 mi ESE 5.8 mph - N/A   Scattered Clouds
1:30 PM 96.8 °F 101.8 °F 68.0 °F 39% 29.68 in 6.2 mi Calm Calm - N/A   Partly Cloudy
2:00 PM 96.8 °F 101.8 °F 68.0 °F 39% 29.68 in 6.2 mi ESE 5.8 mph - N/A   Partly Cloudy
2:30 PM 96.8 °F 100.7 °F 66.2 °F 37% 29.65 in 6.2 mi South 5.8 mph - N/A   Partly Cloudy
3:00 PM 96.8 °F 101.8 °F 68.0 °F 39% 29.62 in 6.2 mi South 5.8 mph - N/A   Partly Cloudy
3:30 PM 96.8 °F 101.8 °F 68.0 °F 39% 29.62 in 6.2 mi South 5.8 mph - N/A   Partly Cloudy
4:00 PM 98.6 °F 102.8 °F 66.2 °F 35% 29.62 in 6.2 mi South 8.1 mph - N/A   Partly Cloudy
4:30 PM 96.8 °F 99.0 °F 64.4 °F 34% 29.62 in 6.2 mi South 5.8 mph - N/A   Partly Cloudy
5:00 PM 96.8 °F 99.0 °F 64.4 °F 34% 29.62 in 6.2 mi South 5.8 mph - N/A   Partly Cloudy
5:30 PM 96.8 °F 100.7 °F 66.2 °F 37% 29.62 in 6.2 mi SSE 8.1 mph - N/A   Partly Cloudy
6:00 PM 95.0 °F 101.3 °F 69.8 °F 44% 29.62 in 6.2 mi SSW 6.9 mph - N/A   Partly Cloudy
6:30 PM 93.2 °F 98.8 °F 69.8 °F 46% 29.62 in 5.6 mi South 5.8 mph - N/A   Partly Cloudy
7:30 PM 86.0 °F 93.4 °F 73.4 °F 66% 29.65 in 5.6 mi SW 5.8 mph - N/A   Unknown
8:00 PM 86.0 °F 91.8 °F 71.6 °F 62% 29.68 in 5.6 mi South 5.8 mph - N/A   Unknown
8:30 PM 86.0 °F 91.8 °F 71.6 °F 62% 29.68 in 5.6 mi Variable 3.5 mph - N/A   Unknown
9:00 PM 86.0 °F 93.4 °F 73.4 °F 66% 29.71 in 5.6 mi Variable 3.5 mph - N/A   Unknown
9:30 PM 86.0 °F 93.4 °F 73.4 °F 66% 29.71 in 5.6 mi Variable 3.5 mph - N/A   Unknown
10:00 PM 86.0 °F 93.4 °F 73.4 °F 66% 29.74 in 5.6 mi Variable 3.5 mph - N/A   Unknown
10:30 PM 86.0 °F 93.4 °F 73.4 °F 66% 29.74 in 5.6 mi SW 4.6 mph - N/A   Scattered Clouds
11:00 PM 86.0 °F 93.4 °F 73.4 °F 66% 29.74 in 5.6 mi WSW 6.9 mph - N/A   Scattered Clouds
11:30 PM 84.2 °F 92.3 °F 75.2 °F 74% 29.74 in 5.6 mi West 4.6 mph - N/A   Scattered Clouds